User: anonymous   Login
Location: Skalnate Pleso
(49.1889°N, 20.2450°E)
Time: 23:30:13
(UTC+01:00)
Language:

AQUARIUS - Orbit

View from above orbital plane
View from above orbital plane
View from above satellite
View from above satellite

Ground track
Ground track

The orbit data is extracted from the following two-line orbital elements,

1 37673U 11024A   20023.56159454 +.00000055 +00000-0 +16279-4 0  9999
2 37673 098.0091 033.1750 0001967 074.4207 035.9012 14.72960874463361
Epoch (UTC): 23 January 2020 13:28:41
Eccentricity: 0.0001967
inclination: 98.0091°
perigee height: 650 km
apogee height: 653 km
right ascension of ascending node: 33.1750°
argument of perigee: 74.4207°
revolutions per day: 14.72960874
mean anomaly at epoch: 35.9012°
orbit number at epoch: 46336

The dashed part of the orbit path shows where the satellite is in the earth's shadow,  

DLR